FW8022 Weather Reports


Display with metric or nautical units.
time (UTC)temp
F
wind
direction
speed
MPH
gust
MPH
rain 1hr
in
rain 24hr
in
rain mn
in
humidity
%
barometer
mb
20260503205038 59 232 5.0 10.0 0.00 0.00 0.00 79 1011.7
20260503204601 59 225 5.0 10.0 0.00 0.00 0.00 78 1011.7
20260503204037 59 229 5.0 10.0 0.00 0.00 0.00 77 1011.7
20260503203536 59 236 5.0 10.0 0.00 0.00 0.00 77 1011.8
20260503203054 58 206 5.0 10.0 0.00 0.00 0.00 77 1011.8
20260503202538 58 221 5.0 8.0 0.00 0.00 0.00 77 1011.9
20260503202037 58 190 5.0 7.0 0.00 0.00 0.00 78 1011.9
20260503201545 58 210 4.0 7.0 0.00 0.00 0.00 79 1011.9
20260503201038 58 252 3.0 7.0 0.00 0.00 0.00 79 1012.0
20260503200537 58 215 3.0 7.0 0.00 0.00 0.00 80 1012.1
20260503200046 58 236 3.0 6.0 0.00 0.00 0.00 81 1012.1
20260503195539 58 227 3.0 6.0 0.00 0.00 0.00 80 1012.1
20260503195037 58 215 3.0 6.0 0.00 0.00 0.00 80 1012.1
20260503194545 58 225 4.0 6.0 0.00 0.00 0.00 79 1012.1
20260503194037 58 235 4.0 8.0 0.00 0.00 0.00 80 1012.1
20260503193537 58 211 4.0 8.0 0.00 0.00 0.00 81 1012.2
20260503193047 58 196 4.0 11.0 0.00 0.00 0.00 81 1012.1
20260503192537 57 220 4.0 11.0 0.00 0.00 0.00 83 1012.1
20260503192037 57 178 5.0 10.0 0.00 0.00 0.00 82 1012.2
20260503191548 57 209 3.0 7.0 0.00 0.00 0.00 82 1012.2
20260503191037 56 220 4.0 7.0 0.00 0.00 0.00 83 1012.2
20260503190537 57 219 3.0 7.0 0.00 0.00 0.00 83 1012.1
20260503190057 57 193 4.0 7.0 0.00 0.00 0.00 83 1012.1
20260503185537 57 223 3.0 7.0 0.00 0.00 0.00 83 1012.1
20260503185036 57 194 4.0 7.0 0.00 0.00 0.00 83 1012.2
20260503184546 57 232 4.0 7.0 0.00 0.00 0.00 84 1012.1
20260503184037 57 243 4.0 7.0 0.00 0.00 0.00 84 1012.2
20260503183537 57 234 4.0 7.0 0.00 0.00 0.00 84 1012.2
20260503183051 57 230 3.0 7.0 0.00 0.00 0.00 84 1012.2
20260503182537 57 244 4.0 8.0 0.00 0.00 0.00 83 1012.1
20260503182037 58 191 3.0 8.0 0.00 0.00 0.00 84 1012.1
20260503181544 57 248 3.0 8.0 0.00 0.00 0.00 85 1012.1
20260503181037 57 235 3.0 7.0 0.00 0.00 0.00 85 1012.1
20260503180537 57 229 2.0 6.0 0.00 0.00 0.00 85 1012.1
20260503180056 57 229 2.0 6.0 0.00 0.00 0.00 85 1012.0
20260503175537 56 234 2.0 5.0 0.00 0.00 0.00 87 1012.1
20260503175038 56 251 2.0 5.0 0.00 0.00 0.00 86 1012.0
20260503174549 56 240 2.0 5.0 0.00 0.00 0.00 86 1012.0
20260503174039 56 240 2.0 4.0 0.00 0.00 0.00 86 1012.0
20260503173538 55 253 2.0 4.0 0.00 0.00 0.00 87 1011.9
20260503173134 55 252 1.0 4.0 0.00 0.00 0.00 87 1011.9
20260503172538 55 286 1.0 4.0 0.00 0.00 0.00 88 1011.8
20260503172036 55 240 2.0 4.0 0.00 0.00 0.00 88 1011.9
20260503171554 55 199 2.0 4.0 0.00 0.00 0.00 89 1011.8
20260503171036 55 227 2.0 4.0 0.00 0.00 0.00 90 1011.8
20260503170537 54 234 2.0 5.0 0.00 0.00 0.00 90 1011.8
20260503150537 53 202 1.0 5.0 0.00 0.00 0.00 89 1011.1
20260503131036 53 234 1.0 3.0 0.00 0.00 0.00 89 1009.8
20260503130536 53 232 1.0 3.0 0.00 0.00 0.00 89 1009.7
20260503110536 53 277 1.0 3.0 0.00 0.00 0.00 89 1009.8
20260503081555 53 293 1.0 6.0 0.00 0.00 0.00 89 1010.8
20260503081037 53 278 2.0 6.0 0.00 0.00 0.00 89 1010.8
20260503080537 53 290 1.0 4.0 0.00 0.00 0.00 90 1010.8
20260503072536 53 263 1.0 4.0 0.00 0.00 0.00 89 1010.8
20260503072036 53 266 1.0 5.0 0.00 0.00 0.00 89 1010.8
20260503071544 53 288 2.0 6.0 0.00 0.00 0.00 89 1010.8
20260503071036 53 274 1.0 6.0 0.00 0.00 0.00 89 1010.7
20260503070538 53 269 1.0 5.0 0.00 0.00 0.00 89 1010.7
20260503055036 53 285 1.0 3.0 0.00 0.00 0.00 89 1011.1
20260503054550 53 285 1.0 4.0 0.00 0.00 0.00 89 1011.3
20260503054036 53 288 1.0 4.0 0.00 0.00 0.00 89 1011.3
20260503053536 53 255 1.0 3.0 0.00 0.00 0.00 89 1011.3
20260503053048 53 264 1.0 6.0 0.00 0.00 0.00 89 1011.3
20260503052539 53 262 2.0 6.0 0.00 0.00 0.00 89 1011.4
20260503052040 53 265 2.0 5.0 0.00 0.00 0.00 89 1011.4
20260503051551 53 279 2.0 8.0 0.00 0.00 0.00 89 1011.4
20260503051038 53 306 2.0 8.0 0.00 0.00 0.00 89 1011.4
20260503050539 53 293 1.0 4.0 0.00 0.00 0.00 89 1011.3
20260503050055 53 276 1.0 4.0 0.00 0.00 0.00 89 1011.3
20260503045540 53 272 1.0 4.0 0.00 0.00 0.00 90 1011.3
20260503045040 53 268 1.0 4.0 0.00 0.00 0.00 89 1011.4
20260503044545 53 282 2.0 5.0 0.00 0.00 0.00 89 1011.3
20260503044038 53 309 1.0 5.0 0.00 0.00 0.00 89 1011.3
20260503043539 53 292 2.0 5.0 0.00 0.00 0.00 89 1011.3
20260503043047 53 290 2.0 6.0 0.00 0.00 0.00 89 1011.3
20260503042539 53 275 2.0 6.0 0.00 0.00 0.00 90 1011.2
20260503042039 53 288 1.0 5.0 0.00 0.00 0.00 89 1011.2
20260503041547 53 286 2.0 6.0 0.00 0.00 0.00 89 1011.2
20260503041042 53 277 2.0 6.0 0.00 0.00 0.00 89 1011.1
20260503040538 53 290 2.0 6.0 0.00 0.00 0.00 90 1011.1
20260503040047 53 305 2.0 4.0 0.00 0.00 0.00 89 1011.1
20260503035538 53 306 1.0 6.0 0.00 0.00 0.00 90 1011.1
20260503035040 53 290 2.0 6.0 0.00 0.00 0.00 90 1011.0
20260503034550 53 269 1.0 7.0 0.00 0.00 0.00 90 1011.0
20260503034039 53 285 2.0 7.0 0.00 0.00 0.00 89 1010.9
20260503033537 53 254 2.0 7.0 0.00 0.00 0.00 89 1010.9
20260503033045 53 269 1.0 6.0 0.00 0.00 0.00 89 1010.8
20260503032538 53 288 2.0 7.0 0.00 0.00 0.00 89 1010.8
20260503032038 53 283 3.0 8.0 0.00 0.00 0.00 89 1010.7
20260503031606 53 271 2.0 8.0 0.00 0.00 0.00 89 1010.6
20260503031039 53 293 2.0 4.0 0.00 0.00 0.00 89 1010.5
20260503030539 53 291 1.0 6.0 0.00 0.00 0.00 89 1010.4
20260503030050 53 260 2.0 7.0 0.00 0.00 0.00 89 1010.4
20260503025538 53 247 2.0 7.0 0.00 0.00 0.00 89 1010.3
20260503025038 53 248 2.0 8.0 0.00 0.00 0.00 89 1010.3
20260503024550 53 282 2.0 8.0 0.00 0.00 0.00 88 1010.3
20260503024038 53 286 3.0 8.0 0.00 0.00 0.00 88 1010.3
20260503023537 53 257 3.0 7.0 0.00 0.00 0.00 88 1010.3
20260503023043 53 284 2.0 8.0 0.00 0.00 0.00 88 1010.3
20260503022537 54 257 3.0 8.0 0.00 0.00 0.00 88 1010.3
20260503022038 54 267 2.0 7.0 0.00 0.00 0.00 87 1010.3
20260503021548 54 249 3.0 7.0 0.00 0.00 0.00 87 1010.4
20260503021041 54 280 3.0 7.0 0.00 0.00 0.00 87 1010.4
20260503020538 54 242 2.0 6.0 0.00 0.00 0.00 87 1010.4
20260503020059 54 234 2.0 5.0 0.00 0.00 0.00 87 1010.5
20260503015539 54 273 2.0 6.0 0.00 0.00 0.00 87 1010.6
20260503015039 54 271 3.0 8.0 0.00 0.00 0.00 86 1010.6
20260503014552 54 263 3.0 8.0 0.00 0.00 0.00 86 1010.6
20260503014038 54 250 1.0 7.0 0.00 0.00 0.00 87 1010.6
20260503013538 54 250 2.0 7.0 0.00 0.00 0.00 86 1010.6
20260503013044 54 246 2.0 7.0 0.00 0.00 0.00 86 1010.6
20260503012538 54 278 2.0 6.0 0.00 0.00 0.00 86 1010.6
20260503012037 54 259 2.0 9.0 0.00 0.00 0.00 86 1010.7
20260503011604 54 255 3.0 9.0 0.00 0.00 0.00 86 1010.7
20260503011038 54 250 2.0 10.0 0.00 0.00 0.00 85 1010.7
20260503010541 54 266 3.0 10.0 0.00 0.00 0.00 85 1010.7
20260503010048 54 315 3.0 7.0 0.00 0.00 0.00 85 1010.8
20260503005540 54 268 2.0 7.0 0.00 0.00 0.00 85 1010.8
20260503005037 54 265 2.0 7.0 0.00 0.00 0.00 85 1010.7
20260503004544 54 290 2.0 7.0 0.00 0.00 0.00 85 1010.8
20260503004037 55 255 3.0 7.0 0.00 0.00 0.00 85 1010.8
20260503003540 54 290 2.0 6.0 0.00 0.00 0.00 85 1010.8
20260503003044 55 263 2.0 6.0 0.00 0.00 0.00 85 1010.8
20260503002537 55 265 2.0 6.0 0.00 0.00 0.00 85 1010.9
20260503002037 55 249 2.0 7.0 0.00 0.00 0.00 85 1010.9
20260503001543 55 238 3.0 8.0 0.00 0.00 0.00 85 1011.0
20260503001038 55 254 3.0 8.0 0.00 0.00 0.00 85 1011.0
20260503000538 55 254 2.0 8.0 0.00 0.00 0.00 85 1011.0
20260503000058 55 254 2.0 5.0 0.00 0.00 0.00 85 1011.0
20260502235538 55 248 2.0 6.0 0.00 0.00 0.00 85 1011.0
20260502235038 55 269 3.0 6.0 0.00 0.00 0.00 85 1011.1
20260502234547 55 231 2.0 6.0 0.00 0.00 0.00 85 1011.1
20260502234038 55 266 3.0 5.0 0.00 0.00 0.00 85 1011.2
20260502233538 55 289 3.0 7.0 0.00 0.00 0.00 85 1011.2
20260502233046 56 243 3.0 7.0 0.00 0.00 0.00 85 1011.2
20260502232539 55 244 3.0 6.0 0.00 0.00 0.00 85 1011.2
20260502232038 55 235 3.0 6.0 0.00 0.00 0.00 85 1011.3
20260502231607 56 255 3.0 7.0 0.00 0.00 0.00 85 1011.4
20260502231038 56 253 3.0 7.0 0.00 0.00 0.00 84 1011.5
20260502230538 56 250 3.0 6.0 0.00 0.00 0.00 84 1011.5
20260502230046 56 246 3.0 7.0 0.00 0.00 0.00 85 1011.6
20260502225538 55 252 3.0 7.0 0.00 0.00 0.00 84 1011.7
20260502225039 56 243 2.0 5.0 0.00 0.00 0.00 85 1011.9
20260502224554 55 235 3.0 5.0 0.00 0.00 0.00 84 1011.9
20260502224038 55 244 2.0 5.0 0.00 0.00 0.00 84 1011.9
20260502223538 55 244 3.0 5.0 0.00 0.00 0.00 84 1011.9
20260502223051 55 234 3.0 5.0 0.00 0.00 0.00 84 1012.0
20260502222538 55 232 2.0 5.0 0.00 0.00 0.00 84 1012.1
20260502222040 55 243 3.0 5.0 0.00 0.00 0.00 84 1012.2
20260502221553 55 240 2.0 8.0 0.00 0.00 0.00 84 1012.2
20260502221038 55 232 3.0 8.0 0.00 0.00 0.00 85 1012.3
20260502220537 55 248 3.0 8.0 0.00 0.00 0.00 85 1012.4
20260502220050 55 255 3.0 8.0 0.00 0.00 0.00 85 1012.4
20260502215538 55 256 3.0 8.0 0.00 0.00 0.00 85 1012.4
20260502215038 55 288 3.0 8.0 0.00 0.00 0.00 84 1012.4
20260502214546 56 287 3.0 8.0 0.00 0.00 0.00 83 1012.4
20260502214037 55 218 3.0 7.0 0.00 0.00 0.00 83 1012.4
20260502213537 55 232 3.0 7.0 0.00 0.00 0.00 83 1012.4
20260502213051 55 234 4.0 7.0 0.00 0.00 0.00 83 1012.4
20260502212537 55 224 3.0 6.0 0.00 0.00 0.00 83 1012.4
20260502212037 56 246 3.0 5.0 0.00 0.00 0.00 83 1012.4
20260502211551 55 224 2.0 5.0 0.00 0.00 0.00 83 1012.5
20260502211038 55 242 2.0 5.0 0.00 0.00 0.00 84 1012.5
20260502210538 55 255 2.0 7.0 0.00 0.00 0.00 83 1012.5
20260502210051 55 247 3.0 7.0 0.00 0.00 0.00 83 1012.7
20260502205541 55 234 3.0 5.0 0.00 0.00 0.00 83 1012.8